{"data":{"norad_id":7646,"epoch":"2026-05-25T04:10:50.733984Z","epoch_age_seconds":63094,"freshness":"FRESH","line1":"1 07646U 75010A   26145.17419831 -.00000136  00000+0  57925-5 0  9991","line2":"2 07646  49.8225 195.4348 0205585 347.0136  12.5511 13.82350184591351","mean_motion":13.82350184,"eccentricity":0.0205585,"inclination_deg":49.8225,"raan_deg":195.4348,"arg_perigee_deg":347.0136,"mean_anomaly_deg":12.5511,"bstar":5.7925e-6,"rev_number":59135,"period_min":104.1704205394,"perigee_km":804.79287372949,"apogee_km":1106.3326059321,"semimajor_km":7333.6997398308,"source":"CELESTRAK","updated_at":"2026-05-25T13:38:24.769132Z"}}